Regional Weather Roundup
Issued by NWS

Home | Current Version | Previous Version | Text Only | Print | Product List | Glossary On
Versions: 1 2 3 4 5 6 7 8 9 10 11 12 13 14 15 16 17 18 19 20 21 22 23 24 25 26 27 28 29 30 31 32 33 34 35 36 37 38 39 40 41 42 43 44 45 46 47 48 49 50
000
ASUS44 KFWD 031610
RWRTX
NORTH TEXAS HOURLY WEATHER ROUNDUP
NATIONAL WEATHER SERVICE FORT WORTH TX
1100 AM CDT MON AUG 03 2015

NOTE: "FAIR" INDICATES FEW OR NO CLOUDS BELOW 12,000 FEET WITH NO
SIGNIFICANT WEATHER AND/OR OBSTRUCTIONS TO VISIBILITY.

TXZ118-119-031700-
DALLAS/FORT WORTH METROPLEX

CITY           SKY/WX    TMP DP  RH WIND       PRES   REMARKS
DFW AIRPORT    PTSUNNY   91  62  37 VRB6      29.93F HX  91
DALLAS LOVE    PTSUNNY   91  63  39 NW3       29.93S HX  92
FTW MEACHAM    MOSUNNY   92  61  35 VRB5      29.93F HX  92
DAL-EXECUTIVE  MOSUNNY   90  64  42 VRB5      29.94S HX  91
FTW-ALLIANCE   MOSUNNY   92  61  35 VRB3      29.94S HX  92
FTW-NAS-JRB    PTSUNNY   93  63  36 N3        29.94S HX  94
FTW-SPINKS     PTSUNNY   93  61  33 SW6       29.96R HX  93
ARLINGTON      PTSUNNY   91  62  37 CALM      29.94S HX  91
ADDISON        MOSUNNY   91  59  33 S6        29.96S HX  90
MESQUITE       SUNNY     90  63  40 MISG      29.94S HX  90
LANCASTER      MOSUNNY   90  63  39 S3        29.95S HX  91
$$

TXZ091>094-102>105-117-120-121-131>134-031700-
NORTH CENTRAL TEXAS

CITY           SKY/WX    TMP DP  RH WIND       PRES   REMARKS
SHRMAN/DENISON SUNNY     90  64  41 CALM      29.97S HX  91
GAINESVILLE    PTSUNNY   87  62  44 CALM      29.97S
BOWIE          MOSUNNY   87  60  40 CALM      29.96F
DECATUR        MOSUNNY   86  58  38 SW5       29.97S
DENTON         MOSUNNY   89  62  40 CALM      29.94S
MCKINNEY       MOSUNNY   90  68  48 E6        29.94S HX  94
GREENVILLE     SUNNY     95  59  30 S5        29.95S HX  94
ROCKWALL       MOSUNNY   90  65  42 NW5       29.94R HX  92
TERRELL        PTSUNNY   90  67  46 SW5       29.95R HX  93
WAXAHACHIE     MOSUNNY   91  65  42 SW6       29.96S HX  93
CLEBURNE         N/A     91  63  38 CALM      29.96F HX  92
GRANBURY       CLOUDY    92  62  36 W3        29.96S HX  92
$$

TXZ083>090-098>101-113>116-127>130-139>142-154-155-031700-
WESTERN NORTH TEXAS

CITY           SKY/WX    TMP DP  RH WIND       PRES   REMARKS
WICHITA FALLS  CLOUDY    76  68  76 E8        29.94F
WF-KICKAPOO    CLOUDY    81  66  59 NE8       29.96F
VERNON         CLOUDY    74  67  77 SE8       29.96F
ABILENE        MOSUNNY   90  62  39 MISG      29.98S HX  90
ABILENE-DYESS  MOSUNNY   88  63  43 VRB6      29.96F
BRECKENRIDGE   SUNNY     87  60  40 E5        29.96F
GRAHAM         MOSUNNY   88  64  43 E6        29.94F
MINERAL WELLS  PTSUNNY   87  65  47 W5        29.95S
STEPHENVILLE   MOSUNNY   87  63  44 SW5       29.99F
COMANCHE       PTSUNNY   89  65  44 W5        29.98S HX  90
BROWNWOOD      SUNNY     88  63  42 S3        29.98S
COLEMAN        SUNNY     89  64  44 SW5       29.99S HX  90
BRADY          SUNNY     90  64  43 S6        29.99R HX  91
$$

TXZ143>147-156>162-174-175-031700-
CENTRAL TEXAS

CITY           SKY/WX    TMP DP  RH WIND       PRES   REMARKS
WACO           SUNNY     91  65  41 VRB5      29.94S HX  93
WACO-TSTC      SUNNY     91  64  40 S5        29.94  HX  93
HILLSBORO      SUNNY     90  63  40 S7        29.95S HX  91
CORSICANA      SUNNY     92  68  45 SW9       29.96R HX  96
MEXIA          SUNNY     91  66  44 N6        29.94S HX  93
HEARNE         SUNNY     90  65  43 S6        29.95S HX  91
CAMERON        SUNNY     92  63  38 S6        29.94S HX  92
TEMPLE         SUNNY     90  63  40 S5        29.95S HX  90
KILLEEN        SUNNY     89  64  43 VRB6      29.95S HX  90
KILLEEN-SKYLRK SUNNY     91  64  40 SE3       29.95S HX  93
FORT HOOD      SUNNY     90  65  43 VRB3      29.94S HX  91
GATESVILLE     SUNNY     91  64  40 S6        29.97F HX  93
HAMILTON       SUNNY     91  60  34 S5        29.99R HX  90
LAMPASAS       SUNNY     91  64  41 S3        29.96S HX  92
$$

TXZ095>097-106>112-122>126-135>138-148>153-164>167-031700-
EAST TEXAS

CITY           SKY/WX    TMP DP  RH WIND       PRES   REMARKS
PARIS          SUNNY     91  63  38 S6        29.96R HX  92
SULPHUR SPRNGS SUNNY     92  59  32 S6        29.97R HX  91
MOUNT PLEASANT SUNNY     91  60  34 W6        29.96R HX  91
GILMER         SUNNY     89  66  45 CALM      29.95R HX  91
MINEOLA        SUNNY     91  64  40 SW5       29.96S HX  93
TYLER          SUNNY     90  67  46 NW5       29.96R HX  93
LONGVIEW       SUNNY     92  68  45 VRB3      29.94S HX  96
MARSHALL       SUNNY     94  64  37 CALM      29.96S HX  95
ATHENS         SUNNY     88  68  51 CALM      29.94S HX  91
PALESTINE      SUNNY     89  66  47 W5        29.96S HX  91
JACKSONVILLE   SUNNY     90  62  39 N6        29.99R HX  91
HENDERSON      SUNNY     89  66  45 CALM      29.96S HX  91
CENTER         FAIR      91  67  45 N8        29.94S HX  94
NACOGDOCHES    SUNNY     90  66  45 N3        29.94S HX  92
LUFKIN         SUNNY     88  66  48 N5        29.95R HX  90
$$

SUPPLEMENTAL OBSERVATIONS (CENTRAL)

CITY           SKY/WX    TMP DP  RH WIND       PRES   REMARKS
CADDO GRASSLND   N/A     93  66  40 S2          N/A  HX  96
PAT MAYSE LAKE   N/A     88  63  42 S1          N/A
MCGREGOR         N/A     93  63  36 SW3         N/A  HX  94
$$

SUPPLEMENTAL OBSERVATIONS (WEST)

CITY           SKY/WX    TMP DP  RH WIND       PRES   REMARKS
MILLERS CREEK    N/A     79  68  69 E8          N/A
LBJ GRASSLAND    N/A     90  63  40 SW3         N/A  HX  90
HAMBY            N/A    N/A N/A N/A S5          N/A
IVIE RESERVOIR   N/A    N/A N/A N/A SW5G14      N/A
COLORADO BEND    N/A     91  59  33 SW6         N/A  HX  90
$$

SUPPLEMENTAL OBSERVATIONS (EAST)

CITY           SKY/WX    TMP DP  RH WIND       PRES   REMARKS
CLARKSVILLE      N/A     93  61  33 SE3         N/A  HX  93
TEXARKANA        N/A     93  68  43 S2          N/A  HX  97
LINDEN           N/A     95  63  34 NW2         N/A  HX  96
GILMER           N/A     93  64  38 SW1         N/A  HX  95
HENDERSON        N/A     91  66  43 W5          N/A  HX  94
LUFKIN           N/A     91  68  46 MISG        N/A  HX  95
N SABINE NF      N/A     93  70  46 MISG        N/A  HX  99
S SABINE NF      N/A     91  68  46 CALM        N/A  HX  95
$$

SUPPLEMENTAL OBSERVATIONS ARE A COLLECTION OF AUTOMATED INSTRUMENTS
THAT ARE MAINTAINED BY A VARIETY OF FEDERAL AND STATE AGENCIES.
CERTAIN ELEMENTS...SUCH AS HUMIDITY VALUES AND SUSTAINED WIND
SPEEDS...MAY BE APPROXIMATED.



USA.gov is the U.S. government's official web portal to all federal, state and local government web resources and services.